Find Starlink 4431

NORAD ID: 53486 Int'l Des: 2022-099 Owner: SPXS Country: US Constellation: starlink operational
LEOCIRCULARRETROGRADESSO

現在のビュー

3D地球を読み込み中...

About Starlink 4431

Starlink 4431 (NORAD 53486) is a starlink constellation satellite (v1.5) launched Aug 12, 2022 by SPXS of US. It operates in LEO, CIRCULAR, RETROGRADE, SSO orbit with a mass of 300.00 kg.

Starlink 4431について

説明を読み込み中...

次回通過

Passes for default location (London). Set your location on the main map for personalized predictions.

高度履歴

Loading altitude history...

軌道要素

1 53486U 22099X 26167.58334491 .00579440 00000-0 63293-2 0 9991
2 53486 97.6057 291.0407 0001087 103.6850 51.7424 15.61445916 5824
Epoch: Jun 16, 2026 • Age: 9 hours

現在のステータス

高度 395.2 km
速度 7.67 km/s
衛星直下点 -33.21°S, 150.88°W
打ち上げ日 Aug 12, 2022
運用期間 3.8 years
タイプ internet

技術仕様

分類 Payload
質量 300.00 kg
乾燥質量 275.00 kg
総質量 300.00 kg
長さ 0.20 m
直径 2.80 m
スパン 9.00 m
形状 Box + pan
製造者 SPXS
バスタイプ Starlink
フェーズステータス In Orbit
所有者/国 SPXS/US

Most Searched